| time (UTC) | temp C | wind direction | speed KPH | gust KPH | rain 1hr cm | rain 24hr cm | rain mn cm | humidity % | barometer mb |
| 20260509224229 | 11 | 169 | 6.4 | 9.7 | 0.00 | 0.89 | 0.89 | 92 | 1007.9 |
| 20260509223726 | 11 | 194 | 6.4 | 9.7 | 0.00 | 0.89 | 0.89 | 92 | 1008.0 |
| 20260509223223 | 11 | 165 | 4.8 | 8.0 | 0.00 | 0.89 | 0.89 | 92 | 1007.8 |
| 20260509222719 | 11 | 203 | 6.4 | 9.7 | 0.00 | 0.89 | 0.89 | 92 | 1007.8 |
| 20260509222215 | 11 | 167 | 4.8 | 8.0 | 0.00 | 0.89 | 0.89 | 92 | 1007.6 |
| 20260509221711 | 11 | 204 | 4.8 | 9.7 | 0.00 | 0.89 | 0.89 | 93 | 1007.6 |
| 20260509221207 | 11 | 191 | 9.7 | 12.9 | 0.00 | 0.89 | 0.89 | 93 | 1007.9 |
| 20260509220703 | 11 | 258 | 3.2 | 4.8 | 0.00 | 0.89 | 0.89 | 93 | 1007.9 |
| 20260509220200 | 11 | 215 | 8.0 | 9.7 | 0.00 | 0.89 | 0.89 | 93 | 1007.9 |
| 20260509215655 | 11 | 145 | 8.0 | 9.7 | 0.00 | 0.89 | 0.89 | 94 | 1007.8 |
| 20260509215152 | 11 | 229 | 4.8 | 4.8 | 0.00 | 0.89 | 0.89 | 94 | 1007.9 |
| 20260509214649 | 11 | 169 | 9.7 | 11.3 | 0.00 | 0.89 | 0.89 | 94 | 1007.9 |
| 20260509214146 | 11 | 273 | 3.2 | 4.8 | 0.00 | 0.89 | 0.89 | 94 | 1007.8 |
| 20260509213643 | 11 | 258 | 6.4 | 8.0 | 0.00 | 0.89 | 0.89 | 95 | 1007.8 |
| 20260509213139 | 11 | 172 | 4.8 | 4.8 | 0.00 | 0.89 | 0.89 | 95 | 1008.0 |
| 20260509212636 | 11 | 175 | 8.0 | 9.7 | 0.00 | 0.89 | 0.89 | 96 | 1008.0 |
| 20260509212133 | 11 | 211 | 4.8 | 4.8 | 0.00 | 0.89 | 0.89 | 96 | 1007.9 |
| 20260509211629 | 10 | 209 | 9.7 | 12.9 | 0.00 | 0.89 | 0.89 | 97 | 1008.2 |
| 20260509211126 | 10 | 241 | 6.4 | 9.7 | 0.00 | 0.89 | 0.89 | 97 | 1008.3 |
| 20260509210623 | 10 | 253 | 4.8 | 4.8 | 0.00 | 0.89 | 0.89 | 97 | 1008.3 |
| 20260509210120 | 10 | 291 | 1.6 | 3.2 | 0.00 | 0.89 | 0.89 | 97 | 1008.3 |
| 20260509205614 | 10 | 238 | 6.4 | 11.3 | 0.00 | 0.89 | 0.89 | 97 | 1008.4 |
| 20260509205109 | 10 | 213 | 8.0 | 9.7 | 0.00 | 0.89 | 0.89 | 97 | 1008.4 |
| 20260509204606 | 10 | 246 | 3.2 | 4.8 | 0.00 | 0.89 | 0.89 | 97 | 1008.4 |
| 20260509204102 | 10 | 261 | 8.0 | 12.9 | 0.00 | 0.89 | 0.89 | 98 | 1008.4 |
| 20260509203558 | 10 | 167 | 6.4 | 9.7 | 0.00 | 0.89 | 0.89 | 98 | 1008.9 |
| 20260509203057 | 10 | 206 | 3.2 | 4.8 | 0.00 | 0.89 | 0.89 | 98 | 1008.6 |
| 20260509202556 | 10 | 204 | 8.0 | 11.3 | 0.18 | 0.89 | 0.89 | 98 | 1008.7 |
| 20260509202052 | 10 | 179 | 3.2 | 3.2 | 0.18 | 0.89 | 0.89 | 98 | 1008.5 |
| 20260509201547 | 10 | 172 | 8.0 | 12.9 | 0.18 | 0.89 | 0.89 | 98 | 1008.9 |
| 20260509201046 | 10 | 162 | 6.4 | 8.0 | 0.00 | 0.86 | 0.86 | 99 | 1008.7 |
| 20260509200545 | 10 | 244 | 1.6 | 1.6 | 0.00 | 0.86 | 0.86 | 99 | 1008.9 |
| 20260509200042 | 10 | 268 | 1.6 | 1.6 | 0.00 | 0.86 | 0.86 | 98 | 1008.9 |
| 20260509195538 | 10 | 164 | 6.4 | 9.7 | 0.00 | 0.86 | 0.86 | 98 | 1008.9 |
| 20260509195037 | 10 | 307 | 4.8 | 4.8 | 0.00 | 0.86 | 0.86 | 98 | 1008.9 |
| 20260509194532 | 10 | 150 | 4.8 | 4.8 | 0.00 | 0.86 | 0.86 | 98 | 1009.0 |
| 20260509194030 | 10 | 306 | 1.6 | 1.6 | 0.13 | 0.86 | 0.86 | 98 | 1008.8 |
| 20260509193530 | 10 | 166 | 8.0 | 9.7 | 0.13 | 0.86 | 0.86 | 98 | 1009.1 |
| 20260509193027 | 10 | 262 | 3.2 | 3.2 | 0.00 | 0.84 | 0.84 | 98 | 1009.1 |
| 20260509192524 | 10 | 150 | 4.8 | 8.0 | 0.18 | 0.84 | 0.84 | 98 | 1009.0 |
| 20260509192019 | 10 | 162 | 3.2 | 4.8 | 0.30 | 0.84 | 0.84 | 98 | 1009.1 |
| 20260509191514 | 10 | 228 | 3.2 | 3.2 | 0.30 | 0.81 | 0.81 | 97 | 1009.1 |
| 20260509191009 | 10 | 177 | 1.6 | 3.2 | 0.18 | 0.79 | 0.79 | 97 | 1009.3 |
| 20260509190507 | 10 | 275 | 1.6 | 1.6 | 0.00 | 0.76 | 0.76 | 97 | 1009.3 |
| 20260509190005 | 10 | 166 | 4.8 | 4.8 | 0.30 | 0.76 | 0.76 | 97 | 1009.4 |
| 20260509185501 | 10 | 197 | 3.2 | 4.8 | 0.30 | 0.76 | 0.76 | 97 | 1009.1 |
| 20260509184958 | 10 | 265 | 8.0 | 9.7 | 0.18 | 0.74 | 0.74 | 97 | 1009.5 |
| 20260509184457 | 10 | 179 | 6.4 | 9.7 | 0.00 | 0.71 | 0.71 | 97 | 1009.3 |
| 20260509183953 | 10 | 171 | 6.4 | 8.0 | 0.00 | 0.71 | 0.71 | 96 | 1009.3 |
| 20260509183453 | 10 | 145 | 4.8 | 4.8 | 0.13 | 0.71 | 0.71 | 96 | 1009.4 |
| 20260509182949 | 10 | 214 | 6.4 | 9.7 | 0.13 | 0.71 | 0.71 | 96 | 1009.4 |
| 20260509182445 | 10 | 189 | 4.8 | 4.8 | 0.00 | 0.69 | 0.69 | 96 | 1009.4 |
| 20260509181943 | 10 | 189 | 3.2 | 4.8 | 0.00 | 0.69 | 0.69 | 96 | 1009.5 |
| 20260509181441 | 10 | 261 | 4.8 | 4.8 | 0.00 | 0.69 | 0.69 | 96 | 1009.1 |
| 20260509180938 | 10 | 238 | 3.2 | 4.8 | 0.00 | 0.69 | 0.69 | 95 | 1009.3 |
| 20260509180434 | 10 | 212 | 4.8 | 8.0 | 0.00 | 0.69 | 0.69 | 95 | 1009.3 |
| 20260509175931 | 10 | 189 | 4.8 | 8.0 | 0.00 | 0.69 | 0.69 | 96 | 1009.3 |
| 20260509175427 | 10 | 184 | 11.3 | 12.9 | 0.00 | 0.69 | 0.69 | 95 | 1009.3 |
| 20260509174923 | 10 | 217 | 4.8 | 4.8 | 0.00 | 0.69 | 0.69 | 95 | 1009.0 |
| 20260509174420 | 10 | 231 | 4.8 | 8.0 | 0.00 | 0.69 | 0.69 | 95 | 1009.3 |
| 20260509173916 | 10 | 186 | 12.9 | 16.1 | 0.00 | 0.69 | 0.69 | 95 | 1009.1 |
| 20260509173415 | 10 | 177 | 14.5 | 16.1 | 0.00 | 0.69 | 0.69 | 95 | 1009.3 |
| 20260509172912 | 10 | 166 | 9.7 | 11.3 | 0.00 | 0.69 | 0.69 | 95 | 1008.9 |
| 20260509172409 | 10 | 149 | 9.7 | 11.3 | 0.00 | 0.69 | 0.69 | 95 | 1009.0 |
| 20260509171904 | 10 | 156 | 11.3 | 12.9 | 0.00 | 0.69 | 0.69 | 95 | 1009.0 |
| 20260509171401 | 10 | 265 | 9.7 | 11.3 | 0.00 | 0.69 | 0.69 | 95 | 1009.1 |
| 20260509170857 | 10 | 194 | 12.9 | 16.1 | 0.00 | 0.69 | 0.69 | 95 | 1009.3 |
| 20260509170353 | 10 | 174 | 4.8 | 9.7 | 0.00 | 0.69 | 0.69 | 95 | 1009.3 |
| 20260509165848 | 10 | 181 | 4.8 | 8.0 | 0.00 | 0.69 | 0.69 | 95 | 1009.0 |
| 20260509165342 | 10 | 174 | 11.3 | 16.1 | 0.00 | 0.69 | 0.69 | 94 | 1009.3 |
| 20260509164838 | 10 | 205 | 11.3 | 16.1 | 0.00 | 0.69 | 0.69 | 94 | 1009.1 |
| 20260509164335 | 10 | 183 | 4.8 | 8.0 | 0.00 | 0.69 | 0.69 | 95 | 1009.3 |
| 20260509163831 | 10 | 177 | 8.0 | 11.3 | 0.00 | 0.69 | 0.69 | 95 | 1009.3 |
| 20260509163328 | 10 | 177 | 12.9 | 17.7 | 0.00 | 0.69 | 0.69 | 95 | 1009.0 |
| 20260509162828 | 10 | 180 | 4.8 | 9.7 | 0.00 | 0.69 | 0.69 | 95 | 1009.3 |
| 20260509162326 | 10 | 175 | 12.9 | 14.5 | 0.00 | 0.69 | 0.69 | 95 | 1009.5 |
| 20260509161822 | 10 | 161 | 8.0 | 11.3 | 0.00 | 0.69 | 0.69 | 95 | 1009.4 |
| 20260509161319 | 10 | 183 | 4.8 | 8.0 | 0.00 | 0.69 | 0.69 | 95 | 1009.5 |
| 20260509160814 | 10 | 192 | 6.4 | 9.7 | 0.00 | 0.69 | 0.69 | 95 | 1009.5 |
| 20260509160310 | 10 | 223 | 8.0 | 11.3 | 0.00 | 0.69 | 0.69 | 95 | 1009.4 |
| 20260509155806 | 10 | 266 | 4.8 | 8.0 | 0.00 | 0.69 | 0.69 | 95 | 1009.8 |
| 20260509155306 | 9 | 143 | 9.7 | 12.9 | 0.18 | 0.69 | 0.69 | 95 | 1009.7 |
| 20260509154759 | 9 | 192 | 14.5 | 16.1 | 0.18 | 0.69 | 0.69 | 96 | 1009.8 |
| 20260509154256 | 10 | 167 | 11.3 | 14.5 | 0.00 | 0.66 | 0.66 | 96 | 1009.5 |
| 20260509153753 | 9 | 176 | 6.4 | 8.0 | 0.00 | 0.66 | 0.66 | 96 | 1010.0 |
| 20260509153249 | 9 | 157 | 4.8 | 8.0 | 0.00 | 0.66 | 0.66 | 96 | 1009.8 |
| 20260509152745 | 9 | 180 | 16.1 | 17.7 | 0.00 | 0.66 | 0.66 | 95 | 1009.7 |
| 20260509152242 | 9 | 184 | 6.4 | 11.3 | 0.00 | 0.66 | 0.66 | 95 | 1009.9 |
| 20260509151739 | 9 | 237 | 8.0 | 14.5 | 0.00 | 0.66 | 0.66 | 95 | 1010.1 |
| 20260509151236 | 9 | 183 | 11.3 | 14.5 | 0.00 | 0.66 | 0.66 | 95 | 1010.2 |
| 20260509150734 | 9 | 145 | 9.7 | 14.5 | 0.13 | 0.66 | 0.66 | 95 | 1009.9 |
| 20260509150232 | 9 | 154 | 8.0 | 11.3 | 0.13 | 0.66 | 0.66 | 95 | 1010.2 |
| 20260509145729 | 9 | 190 | 12.9 | 14.5 | 0.00 | 0.64 | 0.64 | 96 | 1010.4 |
| 20260509145228 | 9 | 215 | 4.8 | 9.7 | 0.18 | 0.64 | 0.64 | 96 | 1010.5 |
| 20260509144725 | 8 | 165 | 6.4 | 9.7 | 0.18 | 0.64 | 0.64 | 96 | 1010.3 |
| 20260509144222 | 8 | 266 | 4.8 | 4.8 | 0.00 | 0.61 | 0.61 | 96 | 1010.5 |
| 20260509143719 | 8 | 183 | 6.4 | 11.3 | 0.00 | 0.61 | 0.61 | 96 | 1010.4 |
| 20260509143217 | 8 | 178 | 3.2 | 4.8 | 0.13 | 0.61 | 0.61 | 96 | 1010.4 |
| 20260509142712 | 8 | 142 | 9.7 | 12.9 | 0.13 | 0.61 | 0.61 | 95 | 1010.4 |
| 20260509142209 | 8 | 130 | 4.8 | 8.0 | 0.00 | 0.58 | 0.58 | 96 | 1010.4 |
| 20260509141704 | 8 | 154 | 4.8 | 9.7 | 0.00 | 0.58 | 0.58 | 95 | 1010.4 |
| 20260509141202 | 8 | 155 | 8.0 | 9.7 | 0.18 | 0.58 | 0.58 | 96 | 1010.2 |
| 20260509140658 | 8 | 179 | 4.8 | 4.8 | 0.18 | 0.58 | 0.58 | 96 | 1010.4 |
| 20260509140156 | 8 | 138 | 4.8 | 8.0 | 0.00 | 0.56 | 0.56 | 96 | 1010.4 |
| 20260509135653 | 8 | 166 | 4.8 | 4.8 | 0.18 | 0.56 | 0.56 | 96 | 1010.3 |
| 20260509135151 | 8 | 122 | 4.8 | 4.8 | 0.18 | 0.56 | 0.56 | 97 | 1010.5 |
| 20260509134647 | 8 | 128 | 8.0 | 9.7 | 0.00 | 0.53 | 0.53 | 96 | 1010.2 |
| 20260509134145 | 8 | 161 | 8.0 | 9.7 | 0.00 | 0.53 | 0.53 | 96 | 1010.3 |
| 20260509133642 | 8 | 151 | 6.4 | 9.7 | 0.13 | 0.53 | 0.53 | 97 | 1010.4 |
| 20260509133139 | 8 | 163 | 6.4 | 8.0 | 0.13 | 0.53 | 0.53 | 97 | 1010.4 |
| 20260509132637 | 8 | 330 | 1.6 | 1.6 | 0.00 | 0.51 | 0.51 | 97 | 1010.4 |
| 20260509132136 | 8 | 144 | 6.4 | 8.0 | 0.18 | 0.51 | 0.51 | 97 | 1010.4 |
| 20260509131631 | 8 | 135 | 6.4 | 9.7 | 0.30 | 0.51 | 0.51 | 97 | 1010.6 |
| 20260509131129 | 8 | 18 | 0.0 | 1.6 | 0.13 | 0.48 | 0.48 | 97 | 1010.4 |
| 20260509130624 | 8 | 297 | 3.2 | 4.8 | 0.13 | 0.48 | 0.48 | 97 | 1010.5 |
| 20260509130121 | 8 | 206 | 3.2 | 4.8 | 0.18 | 0.46 | 0.46 | 97 | 1010.7 |
| 20260509125617 | 8 | 248 | 1.6 | 1.6 | 0.30 | 0.46 | 0.46 | 97 | 1010.6 |
| 20260509125114 | 8 | 170 | 8.0 | 9.7 | 0.13 | 0.43 | 0.43 | 97 | 1010.6 |
| 20260509124611 | 8 | 281 | 1.6 | 1.6 | 0.00 | 0.41 | 0.41 | 97 | 1010.8 |
| 20260509124108 | 8 | 259 | 1.6 | 1.6 | 0.00 | 0.41 | 0.41 | 97 | 1010.5 |
| 20260509123606 | 8 | 275 | 3.2 | 3.2 | 0.18 | 0.41 | 0.41 | 97 | 1010.7 |
| 20260509123102 | 8 | 263 | 4.8 | 4.8 | 0.18 | 0.41 | 0.41 | 97 | 1010.8 |
| 20260509122558 | 8 | 218 | 1.6 | 3.2 | 0.00 | 0.38 | 0.38 | 97 | 1010.7 |
| 20260509122055 | 8 | 163 | 3.2 | 4.8 | 0.13 | 0.38 | 0.38 | 98 | 1010.6 |
| 20260509121551 | 8 | 218 | 4.8 | 4.8 | 0.13 | 0.38 | 0.38 | 98 | 1010.6 |
| 20260509121049 | 8 | 154 | 8.0 | 8.0 | 0.00 | 0.36 | 0.36 | 98 | 1010.9 |
| 20260509120548 | 7 | 198 | 4.8 | 4.8 | 0.18 | 0.36 | 0.36 | 98 | 1010.7 |
| 20260509120046 | 7 | 137 | 3.2 | 4.8 | 0.18 | 0.36 | 0.36 | 97 | 1010.9 |
| 20260509115542 | 7 | 221 | 3.2 | 3.2 | 0.13 | 0.33 | 0.33 | 97 | 1010.8 |
| 20260509115040 | 7 | 316 | 0.0 | 1.6 | 0.13 | 0.33 | 0.33 | 97 | 1011.0 |
| 20260509114538 | 7 | 260 | 3.2 | 3.2 | 0.00 | 0.30 | 0.30 | 97 | 1011.0 |
| 20260509114037 | 7 | 236 | 6.4 | 9.7 | 0.00 | 0.30 | 0.30 | 97 | 1010.8 |
| 20260509113535 | 7 | 162 | 3.2 | 3.2 | 0.18 | 0.30 | 0.30 | 97 | 1010.7 |
| 20260509113032 | 7 | 246 | 4.8 | 8.0 | 0.18 | 0.30 | 0.30 | 97 | 1010.7 |
| 20260509112528 | 7 | 179 | 11.3 | 14.5 | 0.13 | 0.28 | 0.28 | 98 | 1010.6 |
| 20260509112025 | 7 | 302 | 1.6 | 3.2 | 0.13 | 0.28 | 0.28 | 98 | 1010.7 |
| 20260509111522 | 7 | 201 | 4.8 | 4.8 | 0.18 | 0.25 | 0.25 | 98 | 1010.8 |
| 20260509111020 | 7 | 162 | 6.4 | 8.0 | 0.36 | 0.25 | 0.25 | 98 | 1011.0 |
| 20260509110516 | 7 | 196 | 3.2 | 4.8 | 0.18 | 0.23 | 0.23 | 97 | 1010.8 |
| 20260509110013 | 7 | 174 | 8.0 | 9.7 | 0.13 | 0.20 | 0.20 | 97 | 1010.8 |
| 20260509105512 | 7 | 149 | 6.4 | 8.0 | 0.13 | 0.20 | 0.20 | 97 | 1010.6 |
| 20260509105009 | 7 | 323 | 1.6 | 3.2 | 0.18 | 0.18 | 0.18 | 97 | 1010.7 |
| 20260509104506 | 7 | 275 | 4.8 | 4.8 | 0.30 | 0.18 | 0.18 | 97 | 1010.8 |
| 20260509104003 | 7 | 307 | 3.2 | 4.8 | 0.13 | 0.15 | 0.15 | 97 | 1010.8 |
| 20260509103500 | 7 | 253 | 1.6 | 3.2 | 0.18 | 0.13 | 0.13 | 97 | 1011.0 |
| 20260509102958 | 7 | 303 | 1.6 | 1.6 | 0.18 | 0.13 | 0.13 | 97 | 1010.9 |
| 20260509102455 | 7 | 306 | 1.6 | 1.6 | 0.13 | 0.10 | 0.10 | 97 | 1010.8 |
| 20260509101952 | 7 | 118 | 1.6 | 3.2 | 0.13 | 0.10 | 0.10 | 97 | 1010.5 |
| 20260509101448 | 7 | 187 | 4.8 | 4.8 | 0.00 | 0.08 | 0.08 | 97 | 1010.5 |
| 20260509100945 | 7 | 153 | 1.6 | 1.6 | 0.00 | 0.08 | 0.08 | 97 | 1010.7 |
| 20260509100442 | 7 | 290 | 3.2 | 3.2 | 0.00 | 0.08 | 0.08 | 97 | 1010.7 |
| 20260509095939 | 7 | 289 | 1.6 | 1.6 | 0.00 | 0.08 | 0.08 | 97 | 1010.6 |
| 20260509095436 | 7 | 159 | 6.4 | 8.0 | 0.00 | 0.08 | 0.08 | 97 | 1010.2 |
| 20260509094933 | 7 | 192 | 3.2 | 4.8 | 0.00 | 0.08 | 0.08 | 97 | 1010.5 |
| 20260509094429 | 7 | 209 | 3.2 | 3.2 | 0.00 | 0.08 | 0.08 | 97 | 1010.2 |
| 20260509093927 | 7 | 309 | 1.6 | 1.6 | 0.00 | 0.08 | 0.08 | 97 | 1010.5 |
| 20260509093425 | 7 | 301 | 1.6 | 1.6 | 0.00 | 0.08 | 0.08 | 97 | 1010.6 |
| 20260509092923 | 7 | 280 | 0.0 | 1.6 | 0.00 | 0.08 | 0.08 | 97 | 1010.5 |
| 20260509092420 | 7 | 311 | 0.0 | 1.6 | 0.00 | 0.08 | 0.08 | 97 | 1010.2 |
| 20260509091919 | 7 | 313 | 0.0 | 0.0 | 0.18 | 0.08 | 0.08 | 97 | 1010.5 |
| 20260509091415 | 7 | 309 | 0.0 | 1.6 | 0.18 | 0.08 | 0.08 | 97 | 1010.7 |
| 20260509090912 | 7 | 240 | 1.6 | 3.2 | 0.00 | 0.05 | 0.05 | 97 | 1010.6 |
| 20260509090409 | 7 | 242 | 1.6 | 1.6 | 0.00 | 0.05 | 0.05 | 97 | 1010.7 |
| 20260509085907 | 7 | 203 | 4.8 | 4.8 | 0.00 | 0.05 | 0.05 | 97 | 1010.7 |
| 20260509085404 | 7 | 197 | 3.2 | 3.2 | 0.00 | 0.05 | 0.05 | 96 | 1010.6 |
| 20260509084900 | 7 | 242 | 4.8 | 4.8 | 0.00 | 0.05 | 0.05 | 96 | 1010.7 |
| 20260509084357 | 7 | 179 | 6.4 | 8.0 | 0.00 | 0.05 | 0.05 | 96 | 1010.8 |
| 20260509083855 | 7 | 142 | 6.4 | 8.0 | 0.00 | 0.05 | 0.05 | 96 | 1010.8 |
| 20260509083351 | 7 | 299 | 3.2 | 3.2 | 0.00 | 0.05 | 0.05 | 96 | 1010.9 |
| 20260509082848 | 7 | 229 | 3.2 | 3.2 | 0.00 | 0.05 | 0.05 | 96 | 1011.0 |
| 20260509082345 | 7 | 186 | 4.8 | 4.8 | 0.00 | 0.05 | 0.05 | 96 | 1011.0 |
| 20260509081842 | 7 | 242 | 1.6 | 1.6 | 0.13 | 0.05 | 0.05 | 96 | 1011.1 |
| 20260509081339 | 7 | 292 | 3.2 | 4.8 | 0.13 | 0.05 | 0.05 | 96 | 1011.1 |
| 20260509080837 | 7 | 273 | 1.6 | 1.6 | 0.13 | 0.05 | 0.05 | 96 | 1011.2 |
| 20260509080335 | 7 | 271 | 1.6 | 1.6 | 0.00 | 0.03 | 0.03 | 96 | 1011.2 |
| 20260509075833 | 7 | 288 | 0.0 | 1.6 | 0.00 | 0.03 | 0.03 | 95 | 1011.2 |
| 20260509075330 | 7 | 283 | 1.6 | 1.6 | 0.00 | 0.03 | 0.03 | 95 | 1011.2 |
| 20260509074827 | 7 | 297 | 0.0 | 1.6 | 0.00 | 0.03 | 0.03 | 95 | 1011.2 |
| 20260509074325 | 7 | 305 | 1.6 | 1.6 | 0.00 | 0.03 | 0.03 | 95 | 1011.0 |
| 20260509073820 | 7 | 292 | 1.6 | 1.6 | 0.00 | 0.03 | 0.03 | 94 | 1011.2 |
| 20260509073317 | 7 | 209 | 3.2 | 3.2 | 0.00 | 0.03 | 0.03 | 94 | 1010.9 |
| 20260509072814 | 7 | 242 | 1.6 | 3.2 | 0.00 | 0.03 | 0.03 | 94 | 1011.1 |
| 20260509072310 | 7 | 289 | 1.6 | 1.6 | 0.00 | 0.03 | 0.03 | 94 | 1011.1 |
| 20260509071807 | 7 | 310 | 0.0 | 0.0 | 0.00 | 0.03 | 0.03 | 93 | 1011.3 |
| 20260509071304 | 7 | 318 | 0.0 | 0.0 | 0.00 | 0.03 | 0.03 | 93 | 1010.9 |
| 20260509070801 | 7 | 325 | 0.0 | 0.0 | 0.00 | 0.03 | 0.03 | 93 | 1010.9 |
| 20260509070258 | 6 | 324 | 0.0 | 0.0 | 0.00 | 0.03 | 0.03 | 92 | 1010.8 |
| 20260509065754 | 6 | 327 | 0.0 | 0.0 | 0.00 | 0.03 | 0.03 | 92 | 1010.9 |
| 20260509065250 | 6 | 320 | 0.0 | 0.0 | 0.18 | 0.03 | 0.03 | 92 | 1010.9 |
| 20260509064747 | 6 | 326 | 0.0 | 0.0 | 0.18 | 0.03 | 0.03 | 91 | 1011.1 |
| 20260509064244 | 6 | 310 | 0.0 | 0.0 | 0.00 | 0.00 | 0.00 | 91 | 1011.1 |
| 20260509063741 | 6 | 327 | 0.0 | 0.0 | 0.00 | 0.00 | 0.00 | 90 | 1011.0 |
| 20260509063238 | 6 | 324 | 0.0 | 0.0 | 0.00 | 0.00 | 0.00 | 89 | 1011.3 |
| 20260509062735 | 6 | 332 | 0.0 | 0.0 | 0.00 | 0.00 | 0.00 | 88 | 1011.2 |
| 20260509062232 | 6 | 332 | 0.0 | 0.0 | 0.00 | 0.00 | 0.00 | 86 | 1011.5 |
| 20260509061729 | 6 | 310 | 0.0 | 0.0 | 0.00 | 0.00 | 0.00 | 85 | 1011.4 |
| 20260509061227 | 7 | 315 | 0.0 | 1.6 | 0.00 | 0.00 | 0.00 | 82 | 1011.6 |
| 20260509060724 | 7 | 315 | 0.0 | 1.6 | 0.00 | 0.00 | 0.00 | 81 | 1011.6 |
| 20260509060220 | 7 | 314 | 0.0 | 1.6 | 0.00 | 0.00 | 0.00 | 80 | 1011.7 |
| 20260509055716 | 7 | 287 | 0.0 | 1.6 | 0.00 | 0.00 | 0.00 | 81 | 1011.7 |
| 20260509055212 | 7 | 302 | 0.0 | 0.0 | 0.00 | 0.00 | 0.00 | 78 | 1011.7 |
| 20260509054709 | 7 | 220 | 1.6 | 1.6 | 0.00 | 0.00 | 0.00 | 76 | 1011.7 |
| 20260509054206 | 7 | 327 | 0.0 | 0.0 | 0.00 | 0.00 | 0.00 | 78 | 1011.7 |
| 20260509053705 | 7 | 328 | 1.6 | 1.6 | 0.00 | 0.00 | 0.00 | 76 | 1011.9 |
| 20260509053201 | 7 | 299 | 1.6 | 1.6 | 0.00 | 0.00 | 0.00 | 76 | 1011.6 |
| 20260509052659 | 7 | 322 | 0.0 | 0.0 | 0.00 | 0.00 | 0.00 | 75 | 1011.6 |
| 20260509052156 | 7 | 317 | 0.0 | 0.0 | 0.00 | 0.00 | 0.00 | 75 | 1011.6 |
| 20260509051654 | 7 | 325 | 0.0 | 0.0 | 0.00 | 0.00 | 0.00 | 75 | 1011.5 |
| 20260509051151 | 7 | 350 | 0.0 | 1.6 | 0.00 | 0.00 | 0.00 | 74 | 1011.5 |
| 20260509050648 | 8 | 312 | 0.0 | 0.0 | 0.00 | 0.00 | 0.00 | 73 | 1011.5 |
| 20260509050144 | 7 | 327 | 0.0 | 1.6 | 0.00 | 0.00 | 0.00 | 73 | 1011.7 |
| 20260509045642 | 7 | 319 | 1.6 | 1.6 | 0.00 | 0.00 | 0.00 | 73 | 1011.9 |
| 20260509045139 | 7 | 325 | 1.6 | 1.6 | 0.00 | 0.00 | 0.00 | 74 | 1011.7 |
| 20260509044636 | 7 | 317 | 0.0 | 1.6 | 0.00 | 0.00 | 0.00 | 74 | 1011.7 |
| 20260509044133 | 7 | 335 | 0.0 | 0.0 | 0.00 | 0.00 | 0.00 | 69 | 1011.7 |
| 20260509043630 | 7 | 330 | 0.0 | 0.0 | 0.00 | 0.00 | 0.00 | 69 | 1012.0 |
| 20260509043125 | 7 | 346 | 0.0 | 0.0 | 0.00 | 0.00 | 0.00 | 68 | 1012.0 |
| 20260509042622 | 7 | 339 | 0.0 | 0.0 | 0.00 | 0.00 | 0.00 | 66 | 1012.1 |
| 20260509042118 | 7 | 341 | 0.0 | 0.0 | 0.00 | 0.00 | 0.00 | 66 | 1012.1 |
| 20260509041615 | 7 | 328 | 0.0 | 0.0 | 0.00 | 0.00 | 0.00 | 70 | 1012.2 |
| 20260509041112 | 7 | 328 | 0.0 | 0.0 | 0.00 | 0.00 | 0.00 | 68 | 1012.1 |
| 20260509040611 | 7 | 324 | 0.0 | 0.0 | 0.00 | 0.00 | 0.00 | 66 | 1012.2 |
| 20260509040107 | 7 | 332 | 0.0 | 0.0 | 0.00 | 0.03 | 0.03 | 66 | 1012.1 |
| 20260509035604 | 6 | 341 | 0.0 | 0.0 | 0.00 | 0.03 | 0.03 | 67 | 1012.2 |
| 20260509035100 | 6 | 336 | 0.0 | 0.0 | 0.00 | 0.03 | 0.03 | 68 | 1012.2 |
| 20260509034559 | 6 | 334 | 0.0 | 0.0 | 0.00 | 0.03 | 0.03 | 69 | 1011.9 |
| 20260509034055 | 6 | 328 | 0.0 | 0.0 | 0.00 | 0.03 | 0.03 | 69 | 1012.0 |
| 20260509033553 | 6 | 346 | 0.0 | 0.0 | 0.00 | 0.03 | 0.03 | 68 | 1012.0 |
| 20260509033049 | 6 | 357 | 0.0 | 0.0 | 0.00 | 0.03 | 0.03 | 68 | 1012.1 |
| 20260509032547 | 6 | 348 | 0.0 | 0.0 | 0.00 | 0.03 | 0.03 | 69 | 1011.9 |
| 20260509032044 | 6 | 342 | 0.0 | 0.0 | 0.00 | 0.03 | 0.03 | 68 | 1012.0 |
| 20260509031541 | 6 | 331 | 0.0 | 0.0 | 0.00 | 0.03 | 0.03 | 70 | 1012.1 |
| 20260509031038 | 6 | 335 | 0.0 | 0.0 | 0.00 | 0.03 | 0.03 | 71 | 1012.3 |
| 20260509030537 | 6 | 335 | 0.0 | 0.0 | 0.00 | 0.03 | 0.03 | 72 | 1012.3 |
| 20260509030033 | 6 | 358 | 0.0 | 0.0 | 0.00 | 0.03 | 0.03 | 72 | 1012.4 |
| 20260509025529 | 6 | 357 | 0.0 | 1.6 | 0.00 | 0.03 | 0.03 | 69 | 1012.3 |
| 20260509025025 | 6 | 355 | 1.6 | 1.6 | 0.00 | 0.03 | 0.03 | 69 | 1012.3 |
| 20260509024521 | 6 | 1 | 1.6 | 1.6 | 0.00 | 0.03 | 0.03 | 69 | 1012.3 |
| 20260509024017 | 6 | 342 | 0.0 | 0.0 | 0.00 | 0.03 | 0.03 | 69 | 1012.4 |
| 20260509023515 | 6 | 357 | 0.0 | 1.6 | 0.00 | 0.03 | 0.03 | 70 | 1012.1 |
| 20260509023012 | 6 | 357 | 1.6 | 1.6 | 0.00 | 0.03 | 0.03 | 70 | 1012.4 |
| 20260509022508 | 6 | 4 | 1.6 | 1.6 | 0.00 | 0.03 | 0.03 | 72 | 1012.3 |
| 20260509022006 | 6 | 359 | 1.6 | 1.6 | 0.00 | 0.03 | 0.03 | 72 | 1012.1 |
| 20260509021503 | 6 | 1 | 1.6 | 1.6 | 0.00 | 0.03 | 0.03 | 72 | 1012.4 |
| 20260509021000 | 6 | 17 | 1.6 | 1.6 | 0.00 | 0.03 | 0.03 | 71 | 1012.4 |
| 20260509020458 | 6 | 9 | 1.6 | 1.6 | 0.00 | 0.03 | 0.03 | 70 | 1012.3 |
| 20260509015954 | 6 | 353 | 0.0 | 0.0 | 0.00 | 0.03 | 0.03 | 73 | 1012.4 |
| 20260509015453 | 6 | 352 | 0.0 | 0.0 | 0.00 | 0.03 | 0.03 | 71 | 1012.3 |
| 20260509014950 | 6 | 352 | 0.0 | 0.0 | 0.00 | 0.03 | 0.03 | 73 | 1012.1 |
| 20260509014447 | 6 | 352 | 0.0 | 0.0 | 0.00 | 0.03 | 0.03 | 73 | 1012.4 |
| 20260509013943 | 7 | 352 | 0.0 | 0.0 | 0.00 | 0.03 | 0.03 | 73 | 1012.1 |
| 20260509013440 | 7 | 352 | 0.0 | 0.0 | 0.00 | 0.03 | 0.03 | 72 | 1012.4 |
| 20260509012936 | 7 | 352 | 0.0 | 0.0 | 0.00 | 0.03 | 0.03 | 69 | 1012.2 |
| 20260509012432 | 7 | 351 | 0.0 | 0.0 | 0.00 | 0.03 | 0.03 | 67 | 1012.4 |
| 20260509011930 | 7 | 351 | 0.0 | 0.0 | 0.00 | 0.03 | 0.03 | 68 | 1012.2 |
| 20260509011427 | 7 | 351 | 0.0 | 0.0 | 0.00 | 0.03 | 0.03 | 69 | 1012.2 |
| 20260509010925 | 7 | 351 | 0.0 | 0.0 | 0.00 | 0.03 | 0.03 | 68 | 1012.1 |
| 20260509010422 | 8 | 351 | 0.0 | 0.0 | 0.00 | 0.03 | 0.03 | 68 | 1011.7 |
| 20260509005919 | 8 | 351 | 0.0 | 0.0 | 0.00 | 0.03 | 0.03 | 67 | 1011.7 |
| 20260509005417 | 8 | 352 | 0.0 | 0.0 | 0.00 | 0.03 | 0.03 | 66 | 1011.5 |
| 20260509004917 | 8 | 352 | 0.0 | 0.0 | 0.00 | 0.03 | 0.03 | 66 | 1011.4 |
| 20260509004414 | 8 | 351 | 0.0 | 0.0 | 0.00 | 0.03 | 0.03 | 63 | 1011.5 |
| 20260509003911 | 8 | 351 | 0.0 | 0.0 | 0.00 | 0.03 | 0.03 | 65 | 1011.4 |
| 20260509003409 | 8 | 351 | 0.0 | 0.0 | 0.00 | 0.03 | 0.03 | 62 | 1011.4 |
| 20260509002905 | 8 | 351 | 0.0 | 0.0 | 0.00 | 0.03 | 0.03 | 64 | 1011.6 |
| 20260509002404 | 8 | 351 | 0.0 | 0.0 | 0.00 | 0.03 | 0.03 | 62 | 1011.4 |
| 20260509001901 | 9 | 351 | 0.0 | 0.0 | 0.00 | 0.03 | 0.03 | 60 | 1011.3 |
| 20260509001356 | 9 | 351 | 0.0 | 0.0 | 0.00 | 0.03 | 0.03 | 60 | 1011.0 |
| 20260509000854 | 9 | 350 | 0.0 | 0.0 | 0.00 | 0.03 | 0.03 | 59 | 1011.1 |
| 20260509000352 | 9 | 343 | 0.0 | 0.0 | 0.00 | 0.03 | 0.03 | 57 | 1011.2 |
| 20260508235848 | 9 | 344 | 0.0 | 0.0 | 0.00 | 0.03 | 0.03 | 58 | 1011.1 |
| 20260508235345 | 10 | 343 | 0.0 | 0.0 | 0.00 | 0.03 | 0.03 | 58 | 1011.1 |
| 20260508234842 | 10 | 337 | 0.0 | 0.0 | 0.00 | 0.03 | 0.03 | 56 | 1011.1 |
| 20260508234338 | 10 | 336 | 0.0 | 0.0 | 0.00 | 0.03 | 0.03 | 56 | 1010.9 |
| 20260508233837 | 10 | 335 | 0.0 | 0.0 | 0.00 | 0.03 | 0.03 | 56 | 1010.9 |
| 20260508233336 | 10 | 345 | 0.0 | 0.0 | 0.00 | 0.03 | 0.03 | 55 | 1010.7 |
| 20260508232832 | 10 | 347 | 0.0 | 0.0 | 0.00 | 0.03 | 0.03 | 55 | 1010.8 |
| 20260508232329 | 10 | 351 | 0.0 | 0.0 | 0.00 | 0.03 | 0.03 | 53 | 1010.8 |
| 20260508231827 | 10 | 339 | 0.0 | 0.0 | 0.00 | 0.03 | 0.03 | 58 | 1010.9 |
| 20260508231323 | 10 | 337 | 0.0 | 0.0 | 0.00 | 0.03 | 0.03 | 56 | 1010.8 |
| 20260508230820 | 10 | 334 | 0.0 | 0.0 | 0.00 | 0.03 | 0.03 | 54 | 1010.8 |
| 20260508230316 | 10 | 340 | 0.0 | 0.0 | 0.00 | 0.03 | 0.03 | 52 | 1010.7 |
| 20260508225814 | 10 | 339 | 0.0 | 0.0 | 0.00 | 0.03 | 0.03 | 50 | 1010.8 |
| 20260508225310 | 11 | 330 | 1.6 | 1.6 | 0.00 | 0.03 | 0.03 | 51 | 1010.7 |
| 20260508224809 | 11 | 340 | 0.0 | 0.0 | 0.00 | 0.03 | 0.03 | 48 | 1010.9 |